This demonstration page uses our WeatherBlox Daily Observations layout. Learn more.

Left ArrowRight Arrow

34.16533, -84.80231

Hourly Observations for July 4, 2020

Temp ( °F °C ) Dew Point ( °F °C ) Humidity (%) Winds ( mph kmh ) Pressure ( in mb ) Visibility ( mi km ) Precip ( " mm )
12:53 am 00:53 Mostly Cloudy with Mist and Fog 74 23.3 72 22.2 94 94 Calm 29.91 1013 6 10 0.00 0.00
1:53 am 01:53 Clear with Mist and Fog 73 22.8 71 21.7 94 94 SSE 3 6 29.92 1013 6 10 0.00 0.00
2:53 am 02:53 Mostly Cloudy with Mist and Fog 73 22.8 71 21.7 94 94 Calm 29.91 1013 6 10 0.00 0.00
3:53 am 03:53 Cloudy 74 23.3 71 21.7 91 91 Calm 29.90 1013 9 14 0.00 0.00
4:53 am 04:53 Mostly Cloudy with Mist and Fog 73 22.8 71 21.7 94 94 Calm 29.89 1012 6 10 0.00 0.00
5:53 am 05:53 Clear with Mist and Fog 72 22.2 69 20.6 91 91 Calm 29.90 1013 5 8 0.00 0.00
6:53 am 06:53 Partly Cloudy with Mist and Fog 72 22.2 69 20.6 91 91 Calm 29.91 1013 4 6 0.00 0.00
7:53 am 07:53 Partly Cloudy with Mist and Fog 74 23.3 71 21.7 91 91 W 3 6 29.93 1013 6 10 0.00 0.00
8:53 am 08:53 Sunny 79 26.1 72 22.2 79 79 VRB 3 6 29.94 1014 9 14 0.00 0.00
9:53 am 09:53 Sunny 83 28.3 73 22.8 72 72 NE 5 7 29.95 1014 10 16 0.00 0.00
10:53 am 10:53 Sunny 85 29.4 73 22.8 68 68 E 3 6 29.95 1014 10 16 0.00 0.00
11:53 am 11:53 Mostly Sunny 89 31.7 72 22.2 57 57 VRB 6 9 29.94 1014 10 16 0.00 0.00
12:53 pm 12:53 Sunny 90 32.2 71 21.7 54 54 E 5 7 29.93 1014 10 16 0.00 0.00
1:53 pm 13:53 Partly Cloudy 92 33.3 71 21.7 51 51 Calm 29.91 1013 10 16 0.00 0.00
2:53 pm 14:53 Mostly Cloudy 91 32.8 71 21.7 52 52 VRB 6 9 29.89 1012 10 16 0.00 0.00
3:53 pm 15:53 Sunny 90 32.2 73 22.8 58 58 N 12 19 29.88 1012 10 16 0.00 0.00
4:00 pm 16:00 Sunny with Nearby Thunderstorms 90 32.2 73 22.8 58 58 N 10 17 29.87 1012 10 16 0.00 0.00
4:21 pm 16:21 Sunny with Thunderstorms 91 32.8 73 22.8 56 56 ENE 9 15 29.87 1012 10 16 0.00 0.00
4:39 pm 16:39 Partly Cloudy with Nearby Thunderstorms 87 30.6 69 20.6 55 55 SSE 9 15 29.88 1012 10 16 0.00 0.00
4:53 pm 16:53 Mostly Cloudy with Nearby Thunderstorms 81 27.2 72 22.2 74 74 SSE 9 15 29.88 1012 4 6 0.03 0.76
4:57 pm 16:57 Cloudy with Heavy Rain 80 26.7 72 22.2 76 76 SSW 10 17 29.89 1012 2 3 0.09 2.29
5:07 pm 17:07 Cloudy with Light Rain 78 25.6 73 22.8 85 85 Calm 29.88 1012 3 5 0.12 3.05
5:25 pm 17:25 Mostly Cloudy with Nearby Thunderstorms 78 25.6 73 22.8 85 85 Calm 29.88 1012 10 16 0.12 3.05
5:40 pm 17:40 Partly Cloudy 78 25.6 73 22.8 85 85 Calm 29.87 1011 10 16 0.12 3.05
5:53 pm 17:53 Sunny 78 25.6 73 22.8 85 85 SSW 3 6 29.86 1011 10 16 0.12 3.05
6:53 pm 18:53 Sunny 79 26.1 73 22.8 82 82 Calm 29.87 1012 10 16 0.00 0.00
7:53 pm 19:53 Sunny 80 26.7 75 23.9 85 85 Calm 29.88 1012 10 16 0.00 0.00
8:53 pm 20:53 Sunny 79 26.1 74 23.3 85 85 Calm 29.89 1012 10 16 0.00 0.00
9:53 pm 21:53 Clear with Mist and Fog 76 24.4 74 23.3 94 94 Calm 29.90 1012 6 10 0.00 0.00
10:25 pm 22:25 Clear with Mist and Fog 75 23.9 73 22.8 94 94 Calm 29.92 1013 2 3 0.00 0.00
10:46 pm 22:46 Mostly Clear with Mist and Fog 76 24.4 73 22.8 91 91 Calm 29.92 1013 3 4 0.00 0.00
10:53 pm 22:53 Mostly Clear with Mist and Fog 76 24.4 73 22.8 91 91 Calm 29.91 1013 3 5 0.00 0.00
11:53 pm 23:53 Clear with Mist and Fog 75 23.9 73 22.8 94 94 Calm 29.92 1013 3 5 0.00 0.00

Powered by AerisWeather